Year,Month,Day,Hour,Minute,Value (Times are PST for temperature in C)
2017,10,22,00,00,13.20
2017,10,22,00,01,13.20
2017,10,22,00,02,13.20
2017,10,22,00,03,13.20
2017,10,22,00,04,13.20
2017,10,22,00,05,13.20
2017,10,22,00,06,13.20
2017,10,22,00,07,13.20
2017,10,22,00,08,13.20
2017,10,22,00,09,13.10
2017,10,22,00,10,13.10
2017,10,22,00,11,13.10
2017,10,22,00,12,13.10
2017,10,22,00,13,13.10
2017,10,22,00,14,13.10
2017,10,22,00,15,13.10
2017,10,22,00,16,13.10
2017,10,22,00,17,13.10
2017,10,22,00,18,13.10
2017,10,22,00,19,13.10
2017,10,22,00,20,13.10
2017,10,22,00,21,13.10
2017,10,22,00,22,13.10
2017,10,22,00,23,13.10
2017,10,22,00,24,13.10
2017,10,22,00,25,13.10
2017,10,22,00,26,13.10
2017,10,22,00,27,13.10
2017,10,22,00,28,13.10
2017,10,22,00,29,13.10
2017,10,22,00,30,13.10
2017,10,22,00,31,13.10
2017,10,22,00,32,13.10
2017,10,22,00,33,13.10
2017,10,22,00,34,13.10
2017,10,22,00,35,13.10
2017,10,22,00,36,13.20
2017,10,22,00,37,13.20
2017,10,22,00,38,13.20
2017,10,22,00,39,13.10
2017,10,22,00,40,13.10
2017,10,22,00,41,13.10
2017,10,22,00,42,13.10
2017,10,22,00,43,13.10
2017,10,22,00,44,13.10
2017,10,22,00,45,13.10
2017,10,22,00,46,13.10
2017,10,22,00,47,13.10
2017,10,22,00,48,13.20
2017,10,22,00,49,13.20
2017,10,22,00,50,13.20
2017,10,22,00,51,13.30
2017,10,22,00,52,13.30
2017,10,22,00,53,13.40
2017,10,22,00,54,13.40
2017,10,22,00,55,13.40
2017,10,22,00,56,13.40
2017,10,22,00,57,13.40
2017,10,22,00,58,13.50
2017,10,22,00,59,13.60
2017,10,22,01,00,13.70
2017,10,22,01,01,13.70
2017,10,22,01,02,13.70
2017,10,22,01,03,13.80
2017,10,22,01,04,13.70
2017,10,22,01,05,13.70
2017,10,22,01,06,13.70
2017,10,22,01,07,13.70
2017,10,22,01,08,13.70
2017,10,22,01,09,13.70
2017,10,22,01,10,13.70
2017,10,22,01,11,13.60
2017,10,22,01,12,13.60
2017,10,22,01,13,13.60
2017,10,22,01,14,13.60
2017,10,22,01,15,13.60
2017,10,22,01,16,13.60
2017,10,22,01,17,13.60
2017,10,22,01,18,13.50
2017,10,22,01,19,13.50
2017,10,22,01,20,13.50
2017,10,22,01,21,13.50
2017,10,22,01,22,13.50
2017,10,22,01,23,13.40
2017,10,22,01,24,13.40
2017,10,22,01,25,13.30
2017,10,22,01,26,13.30
2017,10,22,01,27,13.30
2017,10,22,01,28,13.20
2017,10,22,01,29,13.20
2017,10,22,01,30,13.20
2017,10,22,01,31,13.30
2017,10,22,01,32,13.30
2017,10,22,01,33,13.20
2017,10,22,01,34,13.20
2017,10,22,01,35,13.20
2017,10,22,01,36,13.20
2017,10,22,01,37,13.20
2017,10,22,01,38,13.20
2017,10,22,01,39,13.20
2017,10,22,01,40,13.20
2017,10,22,01,41,13.20
2017,10,22,01,42,13.10
2017,10,22,01,43,13.00
2017,10,22,01,44,13.00
2017,10,22,01,45,13.00
2017,10,22,01,46,12.90
2017,10,22,01,47,12.90
2017,10,22,01,48,12.90
2017,10,22,01,49,12.90
2017,10,22,01,50,12.90
2017,10,22,01,51,12.90
2017,10,22,01,52,12.90
2017,10,22,01,53,12.80
2017,10,22,01,54,12.80
2017,10,22,01,55,12.80
2017,10,22,01,56,12.80
2017,10,22,01,57,12.80
2017,10,22,01,58,12.90
2017,10,22,01,59,12.90
2017,10,22,02,00,12.90
2017,10,22,02,01,12.90
2017,10,22,02,02,12.80
2017,10,22,02,03,12.80
2017,10,22,02,04,12.80
2017,10,22,02,05,12.80
2017,10,22,02,06,12.80
2017,10,22,02,07,12.80
2017,10,22,02,08,12.70
2017,10,22,02,09,12.70
2017,10,22,02,10,12.70
2017,10,22,02,11,12.70
2017,10,22,02,12,12.70
2017,10,22,02,13,12.70
2017,10,22,02,14,12.80
2017,10,22,02,15,12.80
2017,10,22,02,16,12.90
2017,10,22,02,17,12.80
2017,10,22,02,18,12.80
2017,10,22,02,19,12.70
2017,10,22,02,20,12.60
2017,10,22,02,21,12.60
2017,10,22,02,22,12.60
2017,10,22,02,23,12.60
2017,10,22,02,24,12.50
2017,10,22,02,25,12.50
2017,10,22,02,26,12.50
2017,10,22,02,27,12.50
2017,10,22,02,28,12.40
2017,10,22,02,29,12.40
2017,10,22,02,30,12.50
2017,10,22,02,31,12.50
2017,10,22,02,32,12.60
2017,10,22,02,33,12.50
2017,10,22,02,34,12.50
2017,10,22,02,35,12.50
2017,10,22,02,36,12.40
2017,10,22,02,37,12.40
2017,10,22,02,38,12.40
2017,10,22,02,39,12.40
2017,10,22,02,40,12.50
2017,10,22,02,41,12.50
2017,10,22,02,42,12.60
2017,10,22,02,43,12.60
2017,10,22,02,44,12.70
2017,10,22,02,45,12.70
2017,10,22,02,46,12.70
2017,10,22,02,47,12.70
2017,10,22,02,48,12.70
2017,10,22,02,49,12.60
2017,10,22,02,50,12.60
2017,10,22,02,51,12.70
2017,10,22,02,52,12.70
2017,10,22,02,53,12.80
2017,10,22,02,54,12.80
2017,10,22,02,55,12.80
2017,10,22,02,56,12.70
2017,10,22,02,57,12.80
2017,10,22,02,58,12.80
2017,10,22,02,59,12.80
2017,10,22,03,00,12.70
2017,10,22,03,01,12.80
2017,10,22,03,02,12.80
2017,10,22,03,03,12.80
2017,10,22,03,04,12.80
2017,10,22,03,05,12.80
2017,10,22,03,06,12.80
2017,10,22,03,07,12.80
2017,10,22,03,08,12.90
2017,10,22,03,09,12.90
2017,10,22,03,10,12.90
2017,10,22,03,11,12.90
2017,10,22,03,12,12.90
2017,10,22,03,13,12.90
2017,10,22,03,14,13.00
2017,10,22,03,15,13.00
2017,10,22,03,16,13.00
2017,10,22,03,17,13.10
2017,10,22,03,18,13.10
2017,10,22,03,19,13.10
2017,10,22,03,20,13.20
2017,10,22,03,21,13.20
2017,10,22,03,22,13.20
2017,10,22,03,23,13.20
2017,10,22,03,24,13.10
2017,10,22,03,25,13.10
2017,10,22,03,26,13.10
2017,10,22,03,27,13.10
2017,10,22,03,28,13.10
2017,10,22,03,29,13.10
2017,10,22,03,30,13.10
2017,10,22,03,31,13.10
2017,10,22,03,32,13.10
2017,10,22,03,33,13.10
2017,10,22,03,34,13.10
2017,10,22,03,35,13.10
2017,10,22,03,36,13.20
2017,10,22,03,37,13.20
2017,10,22,03,38,13.20
2017,10,22,03,39,13.20
2017,10,22,03,40,13.20
2017,10,22,03,41,13.20
2017,10,22,03,42,13.20
2017,10,22,03,43,13.20
2017,10,22,03,44,13.20
2017,10,22,03,45,13.20
2017,10,22,03,46,13.20
2017,10,22,03,47,13.20
2017,10,22,03,48,13.20
2017,10,22,03,49,13.30
2017,10,22,03,50,13.20
2017,10,22,03,51,13.20
2017,10,22,03,52,13.20
2017,10,22,03,53,13.10
2017,10,22,03,54,13.10
2017,10,22,03,55,13.10
2017,10,22,03,56,13.10
2017,10,22,03,57,13.10
2017,10,22,03,58,13.10
2017,10,22,03,59,13.10
2017,10,22,04,00,13.10
2017,10,22,04,01,13.10
2017,10,22,04,02,13.10
2017,10,22,04,03,13.10
2017,10,22,04,04,13.10
2017,10,22,04,05,13.10
2017,10,22,04,06,13.10
2017,10,22,04,07,13.10
2017,10,22,04,08,13.00
2017,10,22,04,09,13.00
2017,10,22,04,10,12.90
2017,10,22,04,11,13.00
2017,10,22,04,12,13.00
2017,10,22,04,13,12.90
2017,10,22,04,14,12.90
2017,10,22,04,15,12.90
2017,10,22,04,16,12.90
2017,10,22,04,17,12.90
2017,10,22,04,18,12.90
2017,10,22,04,19,12.90
2017,10,22,04,20,12.90
2017,10,22,04,21,12.80
2017,10,22,04,22,12.90
2017,10,22,04,23,12.90
2017,10,22,04,24,12.90
2017,10,22,04,25,12.90
2017,10,22,04,26,12.90
2017,10,22,04,27,12.80
2017,10,22,04,28,12.80
2017,10,22,04,29,12.80
2017,10,22,04,30,12.80
2017,10,22,04,31,12.80
2017,10,22,04,32,12.80
2017,10,22,04,33,12.80
2017,10,22,04,34,12.80
2017,10,22,04,35,12.80
2017,10,22,04,36,12.80
2017,10,22,04,37,12.80
2017,10,22,04,38,12.80
2017,10,22,04,39,12.80
2017,10,22,04,40,12.80
2017,10,22,04,41,12.80
2017,10,22,04,42,12.80
2017,10,22,04,43,12.80
2017,10,22,04,44,12.80
2017,10,22,04,45,12.80
2017,10,22,04,46,12.80
2017,10,22,04,47,12.80
2017,10,22,04,48,12.90
2017,10,22,04,49,12.90
2017,10,22,04,50,12.90
2017,10,22,04,51,13.00
2017,10,22,04,52,13.00
2017,10,22,04,53,13.00
2017,10,22,04,54,12.90
2017,10,22,04,55,12.90
2017,10,22,04,56,12.90
2017,10,22,04,57,12.90
2017,10,22,04,58,12.90
2017,10,22,04,59,12.90
2017,10,22,05,00,12.90
2017,10,22,05,01,12.90
2017,10,22,05,02,12.90
2017,10,22,05,03,12.90
2017,10,22,05,04,12.80
2017,10,22,05,05,12.80
2017,10,22,05,06,12.80
2017,10,22,05,07,12.80
2017,10,22,05,08,12.80
2017,10,22,05,09,12.80
2017,10,22,05,10,12.80
2017,10,22,05,11,12.80
2017,10,22,05,12,12.80
2017,10,22,05,13,12.80
2017,10,22,05,14,12.80
2017,10,22,05,15,12.80
2017,10,22,05,16,12.80
2017,10,22,05,17,12.80
2017,10,22,05,18,12.80
2017,10,22,05,19,12.80
2017,10,22,05,20,12.80
2017,10,22,05,21,12.80
2017,10,22,05,22,12.80
2017,10,22,05,23,12.80
2017,10,22,05,24,12.80
2017,10,22,05,25,12.80
2017,10,22,05,26,12.70
2017,10,22,05,27,12.70
2017,10,22,05,28,12.70
2017,10,22,05,29,12.70
2017,10,22,05,30,12.70
2017,10,22,05,31,12.70
2017,10,22,05,32,12.70
2017,10,22,05,33,12.70
2017,10,22,05,34,12.70
2017,10,22,05,35,12.70
2017,10,22,05,36,12.70
2017,10,22,05,37,12.70
2017,10,22,05,38,12.80
2017,10,22,05,39,12.80
2017,10,22,05,40,12.80
2017,10,22,05,41,12.80
2017,10,22,05,42,12.80
2017,10,22,05,43,12.80
2017,10,22,05,44,12.80
2017,10,22,05,45,12.80
2017,10,22,05,46,12.80
2017,10,22,05,47,12.70
2017,10,22,05,48,12.70
2017,10,22,05,49,12.70
2017,10,22,05,50,12.70
2017,10,22,05,51,12.80
2017,10,22,05,52,12.80
2017,10,22,05,53,12.80
2017,10,22,05,54,12.80
2017,10,22,05,55,12.70
2017,10,22,05,56,12.70
2017,10,22,05,57,12.70
2017,10,22,05,58,12.70
2017,10,22,05,59,12.70
2017,10,22,06,00,12.70
2017,10,22,06,01,12.70
2017,10,22,06,02,12.70
2017,10,22,06,03,12.70
2017,10,22,06,04,12.70
2017,10,22,06,05,12.60
2017,10,22,06,06,12.60
2017,10,22,06,07,12.60
2017,10,22,06,08,12.60
2017,10,22,06,09,12.60
2017,10,22,06,10,12.60
2017,10,22,06,11,12.60
2017,10,22,06,12,12.60
2017,10,22,06,13,12.60
2017,10,22,06,14,12.60
2017,10,22,06,15,12.60
2017,10,22,06,16,12.60
2017,10,22,06,17,12.60
2017,10,22,06,18,12.60
2017,10,22,06,19,12.60
2017,10,22,06,20,12.70
2017,10,22,06,21,12.70
2017,10,22,06,22,12.70
2017,10,22,06,23,12.60
2017,10,22,06,24,12.60
2017,10,22,06,25,12.60
2017,10,22,06,26,12.60
2017,10,22,06,27,12.60
2017,10,22,06,28,12.60
2017,10,22,06,29,12.60
2017,10,22,06,30,12.60
2017,10,22,06,31,12.60
2017,10,22,06,32,12.60
2017,10,22,06,33,12.60
2017,10,22,06,34,12.60
2017,10,22,06,35,12.60
2017,10,22,06,36,12.60
2017,10,22,06,37,12.60
2017,10,22,06,38,12.60
2017,10,22,06,39,12.50
2017,10,22,06,40,12.50
2017,10,22,06,41,12.40
2017,10,22,06,42,12.40
2017,10,22,06,43,12.40
2017,10,22,06,44,12.40
2017,10,22,06,45,12.40
2017,10,22,06,46,12.50
2017,10,22,06,47,12.50
2017,10,22,06,48,12.50
2017,10,22,06,49,12.50
2017,10,22,06,50,12.50
2017,10,22,06,51,12.50
2017,10,22,06,52,12.40
2017,10,22,06,53,12.50
2017,10,22,06,54,12.50
2017,10,22,06,55,12.50
2017,10,22,06,56,12.50
2017,10,22,06,57,12.40
2017,10,22,06,58,12.50
2017,10,22,06,59,12.40
2017,10,22,07,00,12.40
2017,10,22,07,01,12.40
2017,10,22,07,02,12.40
2017,10,22,07,03,12.40
2017,10,22,07,04,12.40
2017,10,22,07,05,12.40
2017,10,22,07,06,12.40
2017,10,22,07,07,12.40
2017,10,22,07,08,12.50
2017,10,22,07,09,12.50
2017,10,22,07,10,12.50
2017,10,22,07,11,12.50
2017,10,22,07,12,12.50
2017,10,22,07,13,12.60
2017,10,22,07,14,12.60
2017,10,22,07,15,12.60
2017,10,22,07,16,12.60
2017,10,22,07,17,12.60
2017,10,22,07,18,12.60
2017,10,22,07,19,12.50
2017,10,22,07,20,12.50
2017,10,22,07,21,12.40
2017,10,22,07,22,12.40
2017,10,22,07,23,12.40
2017,10,22,07,24,12.50
2017,10,22,07,25,12.50
2017,10,22,07,26,12.50
2017,10,22,07,27,12.50
2017,10,22,07,28,12.60
2017,10,22,07,29,12.60
2017,10,22,07,30,12.60
2017,10,22,07,31,12.60
2017,10,22,07,32,12.60
2017,10,22,07,33,12.60
2017,10,22,07,34,12.60
2017,10,22,07,35,12.50
2017,10,22,07,36,12.50
2017,10,22,07,37,12.40
2017,10,22,07,38,12.30
2017,10,22,07,39,12.20
2017,10,22,07,40,12.20
2017,10,22,07,41,12.10
2017,10,22,07,42,12.10
2017,10,22,07,43,12.00
2017,10,22,07,44,11.90
2017,10,22,07,45,11.80
2017,10,22,07,46,11.70
2017,10,22,07,47,11.70
2017,10,22,07,48,11.70
2017,10,22,07,49,11.70
2017,10,22,07,50,11.70
2017,10,22,07,51,11.70
2017,10,22,07,52,11.70
2017,10,22,07,53,11.60
2017,10,22,07,54,11.70
2017,10,22,07,55,11.70
2017,10,22,07,56,11.70
2017,10,22,07,57,11.70
2017,10,22,07,58,11.70
2017,10,22,07,59,11.70
2017,10,22,08,00,11.70
2017,10,22,08,01,11.70
2017,10,22,08,02,11.60
2017,10,22,08,03,11.60
2017,10,22,08,04,11.50
2017,10,22,08,05,11.50
2017,10,22,08,06,11.50
2017,10,22,08,07,11.50
2017,10,22,08,08,11.40
2017,10,22,08,09,11.40
2017,10,22,08,10,11.40
2017,10,22,08,11,11.40
2017,10,22,08,12,11.30
2017,10,22,08,13,11.30
2017,10,22,08,14,11.30
2017,10,22,08,15,11.30
2017,10,22,08,16,11.30
2017,10,22,08,17,11.30
2017,10,22,08,18,11.30
2017,10,22,08,19,11.30
2017,10,22,08,20,11.30
2017,10,22,08,21,11.30
2017,10,22,08,22,11.30
2017,10,22,08,23,11.30
2017,10,22,08,24,11.20
2017,10,22,08,25,11.20
2017,10,22,08,26,11.20
2017,10,22,08,27,11.20
2017,10,22,08,28,11.20
2017,10,22,08,29,11.20
2017,10,22,08,30,11.20
2017,10,22,08,31,11.20
2017,10,22,08,32,11.20
2017,10,22,08,33,11.20
2017,10,22,08,34,11.20
2017,10,22,08,35,11.20
2017,10,22,08,36,11.10
2017,10,22,08,37,11.10
2017,10,22,08,38,11.10
2017,10,22,08,39,11.10
2017,10,22,08,40,11.10
2017,10,22,08,41,11.10
2017,10,22,08,42,11.10
2017,10,22,08,43,11.10
2017,10,22,08,44,11.10
2017,10,22,08,45,11.10
2017,10,22,08,46,11.10
2017,10,22,08,47,11.20
2017,10,22,08,48,11.20
2017,10,22,08,49,11.30
2017,10,22,08,50,11.30
2017,10,22,08,51,11.40
2017,10,22,08,52,11.50
2017,10,22,08,53,11.50
2017,10,22,08,54,11.60
2017,10,22,08,55,11.60
2017,10,22,08,56,11.60
2017,10,22,08,57,11.60
2017,10,22,08,58,11.60
2017,10,22,08,59,11.60
2017,10,22,09,00,11.60
2017,10,22,09,01,11.60
2017,10,22,09,02,11.60
2017,10,22,09,03,11.50
2017,10,22,09,04,11.60
2017,10,22,09,05,11.60
2017,10,22,09,06,11.60
2017,10,22,09,07,11.60
2017,10,22,09,08,11.60
2017,10,22,09,09,11.60
2017,10,22,09,10,11.70
2017,10,22,09,11,11.70
2017,10,22,09,12,11.70
2017,10,22,09,13,11.70
2017,10,22,09,14,11.70
2017,10,22,09,15,11.70
2017,10,22,09,16,11.70
2017,10,22,09,17,11.70
2017,10,22,09,18,11.60
2017,10,22,09,19,11.60
2017,10,22,09,20,11.60
2017,10,22,09,21,11.70
2017,10,22,09,22,11.70
2017,10,22,09,23,11.70
2017,10,22,09,24,11.70
2017,10,22,09,25,11.70
2017,10,22,09,26,11.80
2017,10,22,09,27,11.80
2017,10,22,09,28,11.80
2017,10,22,09,29,11.80
2017,10,22,09,30,11.90
2017,10,22,09,31,11.90
2017,10,22,09,32,11.90
2017,10,22,09,33,11.90
2017,10,22,09,34,11.90
2017,10,22,09,35,11.90
2017,10,22,09,36,11.90
2017,10,22,09,37,11.90
2017,10,22,09,38,11.90
2017,10,22,09,39,11.90
2017,10,22,09,40,11.90
2017,10,22,09,41,11.90
2017,10,22,09,42,11.90
2017,10,22,09,43,11.90
2017,10,22,09,44,11.90
2017,10,22,09,45,12.00
2017,10,22,09,46,12.00
2017,10,22,09,47,12.00
2017,10,22,09,48,12.10
2017,10,22,09,49,12.10
2017,10,22,09,50,12.20
2017,10,22,09,51,12.20
2017,10,22,09,52,12.10
2017,10,22,09,53,12.10
2017,10,22,09,54,12.10
2017,10,22,09,55,12.00
2017,10,22,09,56,12.00
2017,10,22,09,57,12.00
2017,10,22,09,58,11.90
2017,10,22,09,59,11.90
2017,10,22,10,00,11.90
2017,10,22,10,01,11.90
2017,10,22,10,02,12.00
2017,10,22,10,03,12.00
2017,10,22,10,04,12.10
2017,10,22,10,05,12.10
2017,10,22,10,06,12.20
2017,10,22,10,07,12.20
2017,10,22,10,08,12.20
2017,10,22,10,09,12.30
2017,10,22,10,10,12.40
2017,10,22,10,11,12.40
2017,10,22,10,12,12.40
2017,10,22,10,13,12.50
2017,10,22,10,14,12.60
2017,10,22,10,15,12.60
2017,10,22,10,16,12.60
2017,10,22,10,17,12.70
2017,10,22,10,18,12.70
2017,10,22,10,19,12.70
2017,10,22,10,20,12.80
2017,10,22,10,21,12.80
2017,10,22,10,22,12.90
2017,10,22,10,23,12.90
2017,10,22,10,24,13.00
2017,10,22,10,25,13.00
2017,10,22,10,26,13.00
2017,10,22,10,27,13.10
2017,10,22,10,28,13.10
2017,10,22,10,29,13.10
2017,10,22,10,30,13.20
2017,10,22,10,31,13.20
2017,10,22,10,32,13.20
2017,10,22,10,33,13.30
2017,10,22,10,34,13.30
2017,10,22,10,35,13.40
2017,10,22,10,36,13.40
2017,10,22,10,37,13.50
2017,10,22,10,38,13.50
2017,10,22,10,39,13.50
2017,10,22,10,40,13.50
2017,10,22,10,41,13.50
2017,10,22,10,42,13.50
2017,10,22,10,43,13.50
2017,10,22,10,44,13.60
2017,10,22,10,45,13.60
2017,10,22,10,46,13.60
2017,10,22,10,47,13.60
2017,10,22,10,48,13.50
2017,10,22,10,49,13.60
2017,10,22,10,50,13.60
2017,10,22,10,51,13.60
2017,10,22,10,52,13.60
2017,10,22,10,53,13.60
2017,10,22,10,54,13.60
2017,10,22,10,55,13.60
2017,10,22,10,56,13.60
2017,10,22,10,57,13.50
2017,10,22,10,58,13.50
2017,10,22,10,59,13.40
2017,10,22,11,00,13.40
2017,10,22,11,01,13.30
2017,10,22,11,02,13.30
2017,10,22,11,03,13.20
2017,10,22,11,04,13.10
2017,10,22,11,05,13.10
2017,10,22,11,06,13.00
2017,10,22,11,07,13.10
2017,10,22,11,08,13.10
2017,10,22,11,09,13.10
2017,10,22,11,10,13.10
2017,10,22,11,11,13.20
2017,10,22,11,12,13.30
2017,10,22,11,13,13.30
2017,10,22,11,14,13.40
2017,10,22,11,15,13.40
2017,10,22,11,16,13.40
2017,10,22,11,17,13.50
2017,10,22,11,18,13.50
2017,10,22,11,19,13.50
2017,10,22,11,20,13.50
2017,10,22,11,21,13.50
2017,10,22,11,22,13.50
2017,10,22,11,23,13.60
2017,10,22,11,24,13.60
2017,10,22,11,25,13.60
2017,10,22,11,26,13.60
2017,10,22,11,27,13.60
2017,10,22,11,28,13.60
2017,10,22,11,29,13.50
2017,10,22,11,30,13.50
2017,10,22,11,31,13.50
2017,10,22,11,32,13.50
2017,10,22,11,33,13.50
2017,10,22,11,34,13.60
2017,10,22,11,35,13.60
2017,10,22,11,36,13.60
2017,10,22,11,37,13.70
2017,10,22,11,38,13.70
2017,10,22,11,39,13.70
2017,10,22,11,40,13.80
2017,10,22,11,41,13.80
2017,10,22,11,42,13.90
2017,10,22,11,43,13.90
2017,10,22,11,44,13.90
2017,10,22,11,45,13.90
2017,10,22,11,46,14.00
2017,10,22,11,47,14.00
2017,10,22,11,48,14.00
2017,10,22,11,49,14.00
2017,10,22,11,50,14.00
2017,10,22,11,51,14.00
2017,10,22,11,52,14.10
2017,10,22,11,53,14.10
2017,10,22,11,54,14.10
2017,10,22,11,55,14.20
2017,10,22,11,56,14.20
2017,10,22,11,57,14.20
2017,10,22,11,58,14.10
2017,10,22,11,59,14.10
2017,10,22,12,00,14.00
2017,10,22,12,01,14.00
2017,10,22,12,02,14.00
2017,10,22,12,03,14.00
2017,10,22,12,04,14.00
2017,10,22,12,05,13.90
2017,10,22,12,06,13.90
2017,10,22,12,07,13.90
2017,10,22,12,08,14.00
2017,10,22,12,09,14.00
2017,10,22,12,10,14.10
2017,10,22,12,11,14.20
2017,10,22,12,12,14.20
2017,10,22,12,13,14.20
2017,10,22,12,14,14.20
2017,10,22,12,15,14.20
2017,10,22,12,16,14.20
2017,10,22,12,17,14.20
2017,10,22,12,18,14.20
2017,10,22,12,19,14.30
2017,10,22,12,20,14.30
2017,10,22,12,21,14.30
2017,10,22,12,22,14.40
2017,10,22,12,23,14.40
2017,10,22,12,24,14.40
2017,10,22,12,25,14.40
2017,10,22,12,26,14.30
2017,10,22,12,27,14.40
2017,10,22,12,28,14.40
2017,10,22,12,29,14.30
2017,10,22,12,30,14.30
2017,10,22,12,31,14.30
2017,10,22,12,32,14.30
2017,10,22,12,33,14.30
2017,10,22,12,34,14.30
2017,10,22,12,35,14.40
2017,10,22,12,36,14.30
2017,10,22,12,37,14.30
2017,10,22,12,38,14.40
2017,10,22,12,39,14.40
2017,10,22,12,40,14.50
2017,10,22,12,41,14.50
2017,10,22,12,42,14.60
2017,10,22,12,43,14.60
2017,10,22,12,44,14.60
2017,10,22,12,45,14.60
2017,10,22,12,46,14.50
2017,10,22,12,47,14.50
2017,10,22,12,48,14.40
2017,10,22,12,49,14.40
2017,10,22,12,50,14.40
2017,10,22,12,51,14.40
2017,10,22,12,52,14.40
2017,10,22,12,53,14.40
2017,10,22,12,54,14.30
2017,10,22,12,55,14.30
2017,10,22,12,56,14.30
2017,10,22,12,57,14.30
2017,10,22,12,58,14.30
2017,10,22,12,59,14.30
2017,10,22,13,00,14.30
2017,10,22,13,01,14.20
2017,10,22,13,02,14.20
2017,10,22,13,03,14.20
2017,10,22,13,04,14.20
2017,10,22,13,05,14.20
2017,10,22,13,06,14.20
2017,10,22,13,07,14.20
2017,10,22,13,08,14.20
2017,10,22,13,09,14.20
2017,10,22,13,10,14.30
2017,10,22,13,11,14.30
2017,10,22,13,12,14.40
2017,10,22,13,13,14.50
2017,10,22,13,14,14.50
2017,10,22,13,15,14.60
2017,10,22,13,16,14.60
2017,10,22,13,17,14.60
2017,10,22,13,18,14.60
2017,10,22,13,19,14.60
2017,10,22,13,20,14.60
2017,10,22,13,21,14.50
2017,10,22,13,22,14.50
2017,10,22,13,23,14.50
2017,10,22,13,24,14.40
2017,10,22,13,25,14.50
2017,10,22,13,26,14.40
2017,10,22,13,27,14.50
2017,10,22,13,28,14.50
2017,10,22,13,29,14.60
2017,10,22,13,30,14.60
2017,10,22,13,31,14.70
2017,10,22,13,32,14.70
2017,10,22,13,33,14.80
2017,10,22,13,34,14.80
2017,10,22,13,35,14.80
2017,10,22,13,36,14.90
2017,10,22,13,37,14.90
2017,10,22,13,38,15.00
2017,10,22,13,39,14.90
2017,10,22,13,40,15.00
2017,10,22,13,41,15.00
2017,10,22,13,42,15.00
2017,10,22,13,43,15.00
2017,10,22,13,44,15.00
2017,10,22,13,45,15.00
2017,10,22,13,46,14.90
2017,10,22,13,47,14.90
2017,10,22,13,48,14.90
2017,10,22,13,49,14.90
2017,10,22,13,50,14.90
2017,10,22,13,51,15.00
2017,10,22,13,52,15.00
2017,10,22,13,53,15.10
2017,10,22,13,54,15.10
2017,10,22,13,55,15.10
2017,10,22,13,56,15.00
2017,10,22,13,57,15.00
2017,10,22,13,58,14.90
2017,10,22,13,59,14.80
2017,10,22,14,00,14.80
2017,10,22,14,01,14.80
2017,10,22,14,02,14.70
2017,10,22,14,03,14.70
2017,10,22,14,04,14.70
2017,10,22,14,05,14.60
2017,10,22,14,06,14.60
2017,10,22,14,07,14.60
2017,10,22,14,08,14.60
2017,10,22,14,09,14.60
2017,10,22,14,10,14.60
2017,10,22,14,11,14.50
2017,10,22,14,12,14.50
2017,10,22,14,13,14.50
2017,10,22,14,14,14.50
2017,10,22,14,15,14.50
2017,10,22,14,16,14.50
2017,10,22,14,17,14.50
2017,10,22,14,18,14.60
2017,10,22,14,19,14.60
2017,10,22,14,20,14.60
2017,10,22,14,21,14.60
2017,10,22,14,22,14.60
2017,10,22,14,23,14.70
2017,10,22,14,24,14.60
2017,10,22,14,25,14.60
2017,10,22,14,26,14.60
2017,10,22,14,27,14.60
2017,10,22,14,28,14.60
2017,10,22,14,29,14.60
2017,10,22,14,30,14.60
2017,10,22,14,31,14.60
2017,10,22,14,32,14.70
2017,10,22,14,33,14.70
2017,10,22,14,34,14.80
2017,10,22,14,35,14.90
2017,10,22,14,36,15.00
2017,10,22,14,37,15.00
2017,10,22,14,38,15.00
2017,10,22,14,39,15.00
2017,10,22,14,40,15.00
2017,10,22,14,41,14.90
2017,10,22,14,42,14.90
2017,10,22,14,43,14.90
2017,10,22,14,44,14.90
2017,10,22,14,45,14.80
2017,10,22,14,46,14.90
2017,10,22,14,47,14.90
2017,10,22,14,48,15.00
2017,10,22,14,49,15.00
2017,10,22,14,50,15.10
2017,10,22,14,51,15.20
2017,10,22,14,52,15.20
2017,10,22,14,53,15.20
2017,10,22,14,54,15.20
2017,10,22,14,55,15.20
2017,10,22,14,56,15.30
2017,10,22,14,57,15.30
2017,10,22,14,58,15.30
2017,10,22,14,59,15.30
2017,10,22,15,00,15.30
2017,10,22,15,01,15.30
2017,10,22,15,02,15.30
2017,10,22,15,03,15.30
2017,10,22,15,04,15.30
2017,10,22,15,05,15.30
2017,10,22,15,06,15.20
2017,10,22,15,07,15.20
2017,10,22,15,08,15.20
2017,10,22,15,09,15.20
2017,10,22,15,10,15.20
2017,10,22,15,11,15.10
2017,10,22,15,12,15.00
2017,10,22,15,13,15.00
2017,10,22,15,14,14.90
2017,10,22,15,15,14.90
2017,10,22,15,16,14.90
2017,10,22,15,17,14.90
2017,10,22,15,18,15.00
2017,10,22,15,19,15.00
2017,10,22,15,20,15.10
2017,10,22,15,21,15.10
2017,10,22,15,22,15.20
2017,10,22,15,23,15.20
2017,10,22,15,24,15.20
2017,10,22,15,25,15.20
2017,10,22,15,26,15.20
2017,10,22,15,27,15.20
2017,10,22,15,28,15.20
2017,10,22,15,29,15.20
2017,10,22,15,30,15.10
2017,10,22,15,31,15.10
2017,10,22,15,32,15.10
2017,10,22,15,33,15.10
2017,10,22,15,34,15.10
2017,10,22,15,35,15.10
2017,10,22,15,36,15.00
2017,10,22,15,37,15.00
2017,10,22,15,38,15.00
2017,10,22,15,39,15.00
2017,10,22,15,40,15.00
2017,10,22,15,41,15.00
2017,10,22,15,42,15.00
2017,10,22,15,43,15.00
2017,10,22,15,44,15.00
2017,10,22,15,45,15.00
2017,10,22,15,46,15.10
2017,10,22,15,47,15.10
2017,10,22,15,48,15.10
2017,10,22,15,49,15.10
2017,10,22,15,50,15.10
2017,10,22,15,51,15.00
2017,10,22,15,52,15.00
2017,10,22,15,53,15.00
2017,10,22,15,54,14.90
2017,10,22,15,55,14.90
2017,10,22,15,56,14.90
2017,10,22,15,57,14.80
2017,10,22,15,58,14.80
2017,10,22,15,59,14.70
2017,10,22,16,00,14.70
2017,10,22,16,01,14.60
2017,10,22,16,02,14.60
2017,10,22,16,03,14.50
2017,10,22,16,04,14.40
2017,10,22,16,05,14.40
2017,10,22,16,06,14.30
2017,10,22,16,07,14.20
2017,10,22,16,08,14.00
2017,10,22,16,09,13.70
2017,10,22,16,10,13.50
2017,10,22,16,11,13.30
2017,10,22,16,12,13.10
2017,10,22,16,13,12.90
2017,10,22,16,14,12.90
2017,10,22,16,15,12.90
2017,10,22,16,16,12.80
2017,10,22,16,17,12.90
2017,10,22,16,18,12.90
2017,10,22,16,19,13.00
2017,10,22,16,20,13.00
2017,10,22,16,21,13.10
2017,10,22,16,22,13.10
2017,10,22,16,23,13.10
2017,10,22,16,24,13.20
2017,10,22,16,25,13.20
2017,10,22,16,26,13.30
2017,10,22,16,27,13.20
2017,10,22,16,28,13.20
2017,10,22,16,29,13.20
2017,10,22,16,30,13.20
2017,10,22,16,31,13.20
2017,10,22,16,32,13.20
2017,10,22,16,33,13.10
2017,10,22,16,34,13.10
2017,10,22,16,35,13.10
2017,10,22,16,36,13.10
2017,10,22,16,37,13.10
2017,10,22,16,38,13.10
2017,10,22,16,39,13.10
2017,10,22,16,40,13.10
2017,10,22,16,41,13.10
2017,10,22,16,42,13.10
2017,10,22,16,43,13.00
2017,10,22,16,44,13.00
2017,10,22,16,45,13.00
2017,10,22,16,46,12.90
2017,10,22,16,47,12.90
2017,10,22,16,48,12.90
2017,10,22,16,49,12.90
2017,10,22,16,50,12.80
2017,10,22,16,51,12.80
2017,10,22,16,52,12.80
2017,10,22,16,53,12.80
2017,10,22,16,54,12.70
2017,10,22,16,55,12.70
2017,10,22,16,56,12.70
2017,10,22,16,57,12.70
2017,10,22,16,58,12.70
2017,10,22,16,59,12.70
2017,10,22,17,00,12.60
2017,10,22,17,01,12.60
2017,10,22,17,02,12.60
2017,10,22,17,03,12.60
2017,10,22,17,04,12.60
2017,10,22,17,05,12.60
2017,10,22,17,06,12.60
2017,10,22,17,07,12.60
2017,10,22,17,08,12.60
2017,10,22,17,09,12.60
2017,10,22,17,10,12.60
2017,10,22,17,11,12.60
2017,10,22,17,12,12.60
2017,10,22,17,13,12.60
2017,10,22,17,14,12.60
2017,10,22,17,15,12.60
2017,10,22,17,16,12.60
2017,10,22,17,17,12.60
2017,10,22,17,18,12.70
2017,10,22,17,19,12.70